Погода в Саммите

США     40°44′30″N   74°21′35″W
темп.,
°C
ветер,
м/с
пор.,
м/с
влажн.,
%
обл.,
%
осадки,
мм/ч
давл.,
гПа
погр.,
м
31 июля, сб
сб3123:00+19с49550 0.0 1015725
02:00+17ссз49550 0.0 1015478
05:00+16ссз26570 0.0 1016269
08:00+17сз24550 0.0 1016392
11:00+23сз23340 0.0 10161487
14:00+26зсз34284 0.0 10142037
17:00+27з44300 0.0 10132232
20:00+24з35410 0.0 1014484
1 августа, вс
вс123:00+21зсз12530 0.0 101568
02:00+20с12540 0.0 101576
05:00+18ссз11582 0.0 101539
08:00+21юз01521 0.0 1015239
11:00+26ю34375 0.0 10141292
14:00+25ююз4547100 0.0 10131164
17:00+24ю4654100 0.0 10121146
20:00+22ююв4674100 0.1 1011710
2 августа, пн
пн223:00+20ююз2691100 0.8 1010430
02:00+19юз279758 1.6 1009362
05:00+18зсз39890 0.0 1009458
08:00+19сз510740 0.0 1011814
11:00+23сз58488 0.0 10121467
14:00+27ссз68360 0.0 10121952
17:00+27ссз56310 0.0 10132123
20:00+24ссз25415 0.0 1015443
3 августа, вт
вт323:00+21с37536 0.0 1017437
02:00+19ссз255489 0.0 1018204
05:00+18с2457100 0.0 1018178
08:00+19ссв2355100 0.0 1019318
11:00+23св1245100 0.0 1020809
14:00+25ююв2239100 0.0 10191639
17:00+25ююв1138100 0.0 10171490
20:00+23ююв2456100 0.0 1018332
4 августа, ср
ср423:00+21ю1369100 0.0 1019194
02:00+20з1173100 0.0 101968
05:00+19сз1172100 0.0 101945
08:00+21с1266100 0.0 1021266
11:00+26всв2245100 0.0 10211274
14:00+28вюв3336100 0.0 10212103
17:00+26юв4449100 0.0 1020960
20:00+22ююв4568100 0.0 1022555